DLH83T EDDF-LPPR

Flight info

Callsign DLH83T
Flight time 2h 27m
Altitude 35000
Route SOBRA2L/18 SOBRA Y180 DIK UN857 TOLVU DCT RAPOR DCT GIMER DCT ESTOC UT300 PON UN872 GODIX/N0437F310 UN872 DIDAK/N0448F350 UN872 ERIGA UZ218 FUJTI DCT ATLEN DCT INSID T326 ASPOR
Aircraft A321/M-SDE3FGHIRWY/LB1

Departure

Time 2026-05-04 16:54
Airport Frankfurt Main Airport (EDDF)

Arrival

Time 2026-05-04 19:21
Airport Francisco de Sá Carneiro Airport (LPPR)
Time Latitude Longitude Altitude Speed Heading
2026-05-04 16:15 50.04655 8.56810 364 ft 0 kts 295°
2026-05-04 16:16 50.04753 8.56881 361 ft 0 kts 294°
2026-05-04 16:40 50.04744 8.56912 358 ft 4 kts 293°
2026-05-04 16:41 50.04731 8.56978 362 ft 4 kts 239°
2026-05-04 16:41 50.04797 8.57037 358 ft 2 kts 205°
2026-05-04 16:42 50.04799 8.57038 358 ft 0 kts 205°
2026-05-04 16:44 50.04751 8.57003 365 ft 7 kts 205°
2026-05-04 16:45 50.04625 8.56918 359 ft 13 kts 198°
2026-05-04 16:46 50.04416 8.56677 359 ft 17 kts 249°
2026-05-04 16:46 50.04328 8.56307 359 ft 19 kts 250°
2026-05-04 16:47 50.04230 8.55900 356 ft 21 kts 249°
2026-05-04 16:47 50.04124 8.55457 358 ft 22 kts 250°
2026-05-04 16:48 50.03961 8.54775 358 ft 24 kts 250°
2026-05-04 16:48 50.03902 8.54530 353 ft 25 kts 250°
2026-05-04 16:49 50.03763 8.54069 353 ft 24 kts 249°
2026-05-04 16:49 50.03648 8.53597 349 ft 24 kts 247°
2026-05-04 16:50 50.03532 8.53117 335 ft 23 kts 250°
2026-05-04 16:50 50.03445 8.52779 332 ft 11 kts 248°
2026-05-04 16:51 50.03436 8.52742 333 ft 0 kts 249°
2026-05-04 16:51 50.03428 8.52708 332 ft 4 kts 249°
2026-05-04 16:52 50.03388 8.52595 332 ft 7 kts 204°
2026-05-04 16:52 50.03366 8.52594 333 ft 0 kts 179°
2026-05-04 16:53 50.03300 8.52595 332 ft 35 kts 179°
2026-05-04 16:53 50.00655 8.52629 629 ft 180 kts 180°
2026-05-04 16:54 49.99400 8.52682 1335 ft 180 kts 180°
2026-05-04 16:55 49.93606 8.53080 2779 ft 235 kts 178°
2026-05-04 16:55 49.90324 8.53292 3599 ft 234 kts 178°
2026-05-04 16:56 49.87087 8.53290 3997 ft 233 kts 192°
2026-05-04 16:56 49.82159 8.50581 4021 ft 262 kts 200°
2026-05-04 16:57 49.80443 8.49608 4025 ft 263 kts 200°
2026-05-04 16:57 49.77146 8.47158 4930 ft 267 kts 223°
2026-05-04 16:58 49.76308 8.38967 7011 ft 280 kts 282°
2026-05-04 16:58 49.76792 8.36044 7716 ft 281 kts 281°
2026-05-04 16:59 49.77758 8.30168 9113 ft 283 kts 281°
2026-05-04 17:00 49.79760 8.17591 10563 ft 334 kts 281°
2026-05-04 17:00 49.81463 8.06906 12186 ft 346 kts 281°
2026-05-04 17:01 49.82621 7.99622 13285 ft 351 kts 281°
2026-05-04 17:01 49.83796 7.92213 14297 ft 357 kts 281°
2026-05-04 17:02 49.84973 7.84693 15271 ft 361 kts 280°
2026-05-04 17:02 49.86159 7.77076 16227 ft 366 kts 280°
2026-05-04 17:03 49.86761 7.73232 16701 ft 368 kts 281°
2026-05-04 17:03 49.87370 7.69375 17190 ft 371 kts 281°
2026-05-04 17:03 49.88591 7.61568 18121 ft 376 kts 281°
2026-05-04 17:04 49.89815 7.53612 18923 ft 380 kts 280°
2026-05-04 17:04 49.91038 7.45581 19678 ft 385 kts 280°
2026-05-04 17:05 49.92262 7.37531 20454 ft 389 kts 280°
2026-05-04 17:05 49.93510 7.29328 21218 ft 393 kts 280°
2026-05-04 17:06 49.94772 7.21007 22008 ft 396 kts 280°
2026-05-04 17:06 49.95400 7.16828 22385 ft 397 kts 280°
2026-05-04 17:07 49.96653 7.08439 23141 ft 401 kts 280°
2026-05-04 17:07 49.97072 7.05625 23382 ft 403 kts 280°
2026-05-04 17:07 49.97918 6.99938 23808 ft 405 kts 279°
2026-05-04 17:07 49.98554 6.95662 24105 ft 407 kts 279°
2026-05-04 17:08 49.99107 6.91411 24418 ft 406 kts 274°
2026-05-04 17:08 49.99109 6.82688 25051 ft 405 kts 264°
2026-05-04 17:08 49.98975 6.78308 25358 ft 406 kts 264°
2026-05-04 17:09 49.98842 6.73932 25664 ft 408 kts 264°
2026-05-04 17:09 49.98706 6.69517 25971 ft 409 kts 264°
2026-05-04 17:09 49.98569 6.65085 26266 ft 411 kts 263°
2026-05-04 17:10 49.98019 6.56251 26846 ft 410 kts 253°
2026-05-04 17:10 49.95477 6.46113 27532 ft 409 kts 243°
2026-05-04 17:11 49.94340 6.42081 27823 ft 411 kts 243°
2026-05-04 17:11 49.93210 6.38059 28108 ft 412 kts 243°
2026-05-04 17:11 49.90913 6.29868 28814 ft 413 kts 242°
2026-05-04 17:12 49.89766 6.25814 29117 ft 413 kts 242°
2026-05-04 17:12 49.87406 6.17638 29657 ft 415 kts 242°
2026-05-04 17:13 49.83588 6.07425 30242 ft 412 kts 231°
2026-05-04 17:14 49.78066 5.95389 31002 ft 412 kts 231°
2026-05-04 17:14 49.76392 5.91772 31261 ft 412 kts 231°
2026-05-04 17:14 49.73866 5.85450 31731 ft 416 kts 241°
2026-05-04 17:15 49.72841 5.81287 31987 ft 418 kts 245°
2026-05-04 17:15 49.70909 5.72896 32486 ft 416 kts 245°
2026-05-04 17:16 49.68955 5.64502 32989 ft 414 kts 245°
2026-05-04 17:16 49.66022 5.52000 33702 ft 412 kts 245°
2026-05-04 17:17 49.65051 5.47860 33942 ft 411 kts 245°
2026-05-04 17:17 49.62119 5.35432 34541 ft 411 kts 246°
2026-05-04 17:18 49.61191 5.31247 34698 ft 412 kts 247°
2026-05-04 17:18 49.59415 5.22829 34960 ft 413 kts 248°
2026-05-04 17:19 49.57780 5.14312 34966 ft 414 kts 250°
2026-05-04 17:20 49.54877 4.97211 34967 ft 414 kts 250°
2026-05-04 17:20 49.52575 4.84353 34961 ft 416 kts 250°
2026-05-04 17:21 49.49465 4.67197 34962 ft 417 kts 250°
2026-05-04 17:22 49.47915 4.58668 34961 ft 417 kts 250°
2026-05-04 17:23 49.44755 4.41467 34973 ft 418 kts 250°
2026-05-04 17:24 49.42374 4.28559 34952 ft 419 kts 250°
2026-05-04 17:25 49.39177 4.11398 34955 ft 419 kts 250°
2026-05-04 17:26 49.35985 3.94149 34960 ft 421 kts 252°
2026-05-04 17:27 49.32938 3.72112 34956 ft 422 kts 253°
2026-05-04 17:28 49.30408 3.54630 34978 ft 421 kts 253°
2026-05-04 17:29 49.26524 3.28314 34948 ft 423 kts 253°
2026-05-04 17:31 49.23245 3.06356 34968 ft 423 kts 253°
2026-05-04 17:32 49.19920 2.84429 34954 ft 424 kts 253°
2026-05-04 17:33 49.17226 2.66856 34953 ft 424 kts 253°
2026-05-04 17:34 49.14490 2.49272 34961 ft 425 kts 253°
2026-05-04 17:35 49.11808 2.27075 34956 ft 428 kts 259°
2026-05-04 17:36 49.10976 2.18066 34964 ft 428 kts 259°
2026-05-04 17:36 49.10122 2.09037 34945 ft 429 kts 259°
2026-05-04 17:37 49.08626 2.00297 34941 ft 424 kts 243°
2026-05-04 17:37 49.06172 1.92182 34942 ft 424 kts 243°
2026-05-04 17:38 49.03710 1.84017 34962 ft 423 kts 243°
2026-05-04 17:38 49.01247 1.75840 34994 ft 423 kts 243°
2026-05-04 17:39 48.97559 1.63668 34979 ft 422 kts 243°
2026-05-04 17:39 48.95084 1.55569 34980 ft 422 kts 243°
2026-05-04 17:40 48.92607 1.47479 34981 ft 422 kts 243°
2026-05-04 17:40 48.90147 1.39428 34982 ft 422 kts 243°
2026-05-04 17:41 48.87664 1.31351 34986 ft 422 kts 243°
2026-05-04 17:41 48.85163 1.23269 34986 ft 423 kts 242°
2026-05-04 17:42 48.82662 1.15195 34983 ft 423 kts 242°
2026-05-04 17:42 48.80155 1.07105 34979 ft 423 kts 242°
2026-05-04 17:43 48.77626 0.99013 34981 ft 423 kts 242°
2026-05-04 17:43 48.75113 0.90989 34977 ft 424 kts 242°
2026-05-04 17:44 48.72206 0.83294 34988 ft 422 kts 236°
2026-05-04 17:44 48.69140 0.75713 34987 ft 422 kts 236°
2026-05-04 17:45 48.66067 0.68161 34985 ft 422 kts 236°
2026-05-04 17:45 48.62992 0.60606 34985 ft 421 kts 236°
2026-05-04 17:46 48.59943 0.53121 34987 ft 420 kts 236°
2026-05-04 17:46 48.56863 0.45593 34986 ft 419 kts 236°
2026-05-04 17:47 48.53795 0.38109 34997 ft 420 kts 235°
2026-05-04 17:47 48.50733 0.30668 34989 ft 420 kts 235°
2026-05-04 17:48 48.47641 0.23183 34978 ft 420 kts 234°
2026-05-04 17:48 48.44544 0.15704 34988 ft 420 kts 234°
2026-05-04 17:49 48.41447 0.08247 34982 ft 420 kts 234°
2026-05-04 17:49 48.38347 0.00785 34980 ft 420 kts 234°
2026-05-04 17:50 48.35201 -0.06613 34981 ft 420 kts 232°
2026-05-04 17:50 48.31771 -0.13652 34972 ft 420 kts 229°
2026-05-04 17:51 48.28189 -0.20617 34957 ft 420 kts 229°
2026-05-04 17:51 48.24650 -0.27585 34972 ft 421 kts 229°
2026-05-04 17:52 48.21093 -0.34579 34969 ft 421 kts 229°
2026-05-04 17:52 48.17530 -0.41546 34974 ft 421 kts 229°
2026-05-04 17:53 48.13955 -0.48509 34977 ft 421 kts 229°
2026-05-04 17:53 48.10390 -0.55459 34987 ft 421 kts 229°
2026-05-04 17:54 48.06809 -0.62402 34990 ft 421 kts 229°
2026-05-04 17:54 48.03230 -0.69323 34988 ft 421 kts 229°
2026-05-04 17:55 47.99645 -0.76251 34992 ft 421 kts 229°
2026-05-04 17:55 47.96088 -0.83128 34991 ft 421 kts 229°
2026-05-04 17:56 47.92499 -0.90037 34992 ft 422 kts 229°
2026-05-04 17:56 47.88884 -0.96948 34969 ft 423 kts 229°
2026-05-04 17:57 47.85249 -1.03882 34963 ft 424 kts 229°
2026-05-04 17:57 47.81626 -1.10783 34962 ft 424 kts 229°
2026-05-04 17:58 47.77988 -1.17711 34961 ft 424 kts 228°
2026-05-04 17:58 47.74369 -1.24586 34970 ft 424 kts 228°
2026-05-04 17:59 47.70717 -1.31500 34961 ft 425 kts 229°
2026-05-04 18:00 47.65216 -1.41893 34956 ft 427 kts 229°
2026-05-04 18:00 47.61534 -1.48826 34960 ft 428 kts 228°
2026-05-04 18:01 47.57790 -1.55624 34966 ft 427 kts 226°
2026-05-04 18:01 47.53812 -1.62129 34983 ft 426 kts 224°
2026-05-04 18:02 47.48441 -1.70707 34981 ft 427 kts 225°
2026-05-04 18:02 47.44436 -1.77235 34964 ft 428 kts 225°
2026-05-04 18:03 47.40462 -1.83763 34965 ft 429 kts 225°
2026-05-04 18:03 47.36468 -1.90300 34978 ft 429 kts 224°
2026-05-04 18:04 47.31802 -1.95666 34985 ft 424 kts 209°
2026-05-04 18:05 47.24230 -2.02419 34990 ft 424 kts 209°
2026-05-04 18:05 47.19225 -2.06885 35011 ft 424 kts 209°
2026-05-04 18:06 47.11617 -2.13668 34977 ft 427 kts 210°
2026-05-04 18:06 47.06531 -2.18183 34982 ft 428 kts 209°
2026-05-04 18:07 47.01431 -2.22694 34983 ft 428 kts 209°
2026-05-04 18:07 46.96322 -2.27199 34989 ft 429 kts 209°
2026-05-04 18:08 46.91251 -2.31672 34994 ft 429 kts 210°
2026-05-04 18:08 46.86140 -2.36174 34996 ft 429 kts 210°
2026-05-04 18:09 46.75901 -2.45168 35015 ft 430 kts 210°
2026-05-04 18:10 46.70760 -2.49656 35000 ft 431 kts 210°
2026-05-04 18:10 46.65614 -2.54158 34997 ft 431 kts 210°
2026-05-04 18:11 46.60465 -2.58641 34999 ft 432 kts 209°
2026-05-04 18:11 46.55335 -2.63085 34999 ft 432 kts 209°
2026-05-04 18:12 46.50178 -2.67558 35001 ft 431 kts 210°
2026-05-04 18:12 46.45024 -2.72023 35004 ft 431 kts 210°
2026-05-04 18:13 46.39883 -2.76468 35009 ft 430 kts 210°
2026-05-04 18:14 46.32189 -2.83095 35011 ft 430 kts 209°
2026-05-04 18:14 46.27060 -2.87536 35006 ft 430 kts 213°
2026-05-04 18:15 46.17824 -2.98630 35002 ft 431 kts 218°
2026-05-04 18:16 46.13243 -3.04216 35004 ft 431 kts 218°
2026-05-04 18:16 46.08665 -3.09780 35005 ft 431 kts 218°
2026-05-04 18:17 46.01797 -3.18118 35030 ft 430 kts 218°
2026-05-04 18:18 45.94937 -3.26389 35015 ft 431 kts 218°
2026-05-04 18:18 45.90342 -3.31926 35018 ft 431 kts 218°
2026-05-04 18:19 45.83443 -3.40209 35014 ft 430 kts 218°
2026-05-04 18:19 45.78847 -3.45723 35015 ft 430 kts 218°
2026-05-04 18:20 45.74248 -3.51225 35019 ft 430 kts 218°
2026-05-04 18:20 45.69684 -3.56670 35029 ft 430 kts 218°
2026-05-04 18:21 45.65046 -3.62192 35025 ft 430 kts 218°
2026-05-04 18:21 45.60477 -3.67622 35022 ft 430 kts 218°
2026-05-04 18:22 45.55867 -3.73088 35021 ft 430 kts 218°
2026-05-04 18:22 45.51253 -3.78547 35022 ft 430 kts 218°
2026-05-04 18:23 45.46637 -3.83990 35024 ft 430 kts 218°
2026-05-04 18:23 45.42027 -3.89408 35039 ft 430 kts 218°
2026-05-04 18:24 45.37434 -3.94787 35029 ft 430 kts 218°
2026-05-04 18:24 45.32807 -4.00228 35026 ft 431 kts 218°
2026-05-04 18:25 45.28181 -4.05652 35018 ft 431 kts 218°
2026-05-04 18:25 45.23577 -4.11015 35028 ft 430 kts 218°
2026-05-04 18:26 45.18953 -4.16403 35028 ft 430 kts 218°
2026-05-04 18:26 45.14320 -4.21789 35032 ft 430 kts 218°
2026-05-04 18:27 45.09690 -4.27151 35028 ft 430 kts 218°
2026-05-04 18:27 45.05058 -4.32519 35033 ft 430 kts 218°
2026-05-04 18:28 45.00421 -4.37861 35034 ft 429 kts 218°
2026-05-04 18:28 44.95792 -4.43177 35033 ft 429 kts 218°
2026-05-04 18:29 44.91172 -4.48494 35034 ft 429 kts 218°
2026-05-04 18:29 44.86552 -4.53810 35030 ft 428 kts 218°
2026-05-04 18:30 44.79646 -4.61717 35037 ft 428 kts 218°
2026-05-04 18:31 44.75002 -4.67012 35036 ft 428 kts 218°
2026-05-04 18:31 44.70384 -4.72267 35029 ft 428 kts 218°
2026-05-04 18:32 44.65752 -4.77527 35027 ft 428 kts 218°
2026-05-04 18:32 44.61117 -4.82787 35028 ft 428 kts 218°
2026-05-04 18:33 44.56476 -4.88033 35028 ft 428 kts 218°
2026-05-04 18:33 44.51861 -4.93241 35028 ft 428 kts 218°
2026-05-04 18:34 44.47144 -4.98327 35036 ft 428 kts 216°
2026-05-04 18:34 44.42281 -5.03159 35027 ft 429 kts 215°
2026-05-04 18:35 44.37385 -5.07957 35027 ft 429 kts 215°
2026-05-04 18:35 44.32506 -5.12818 35027 ft 430 kts 216°
2026-05-04 18:36 44.27686 -5.17659 35028 ft 430 kts 216°
2026-05-04 18:36 44.22815 -5.22532 35038 ft 430 kts 216°
2026-05-04 18:37 44.17934 -5.27387 35042 ft 430 kts 216°
2026-05-04 18:37 44.13050 -5.32227 35043 ft 430 kts 216°
2026-05-04 18:38 44.08196 -5.37036 35046 ft 431 kts 216°
2026-05-04 18:38 44.03301 -5.41881 35042 ft 432 kts 216°
2026-05-04 18:39 43.98396 -5.46727 35041 ft 432 kts 216°
2026-05-04 18:39 43.93494 -5.51561 35047 ft 433 kts 216°
2026-05-04 18:40 43.88576 -5.56392 35038 ft 433 kts 216°
2026-05-04 18:40 43.83657 -5.61212 35061 ft 432 kts 216°
2026-05-04 18:41 43.78775 -5.65991 35066 ft 432 kts 216°
2026-05-04 18:41 43.73866 -5.70786 35071 ft 432 kts 216°
2026-05-04 18:42 43.68944 -5.75579 35068 ft 433 kts 216°
2026-05-04 18:42 43.64026 -5.80373 35069 ft 433 kts 217°
2026-05-04 18:43 43.59124 -5.85137 35074 ft 433 kts 217°
2026-05-04 18:43 43.54183 -5.89929 35077 ft 434 kts 217°
2026-05-04 18:44 43.49234 -5.94707 35077 ft 434 kts 217°
2026-05-04 18:44 43.44281 -5.99483 35080 ft 434 kts 217°
2026-05-04 18:45 43.39341 -6.04235 35083 ft 433 kts 217°
2026-05-04 18:45 43.34402 -6.08987 35092 ft 433 kts 217°
2026-05-04 18:46 43.29471 -6.13719 35091 ft 432 kts 217°
2026-05-04 18:46 43.24541 -6.18444 35081 ft 432 kts 217°
2026-05-04 18:47 43.19615 -6.23156 35084 ft 432 kts 217°
2026-05-04 18:47 43.14683 -6.27849 35085 ft 431 kts 217°
2026-05-04 18:48 43.09755 -6.32538 35088 ft 431 kts 217°
2026-05-04 18:48 43.04825 -6.37224 35071 ft 431 kts 217°
2026-05-04 18:49 42.99929 -6.41860 35082 ft 430 kts 217°
2026-05-04 18:49 42.95023 -6.46499 35086 ft 430 kts 217°
2026-05-04 18:50 42.90085 -6.51167 35085 ft 431 kts 217°
2026-05-04 18:50 42.85988 -6.55027 35086 ft 431 kts 217°
2026-05-04 18:51 42.80256 -6.60416 35066 ft 431 kts 217°
2026-05-04 18:51 42.76125 -6.64276 35076 ft 430 kts 217°
2026-05-04 18:52 42.71202 -6.68893 35088 ft 430 kts 217°
2026-05-04 18:52 42.66295 -6.73499 35089 ft 430 kts 217°
2026-05-04 18:53 42.61353 -6.78115 35092 ft 430 kts 217°
2026-05-04 18:53 42.56420 -6.82707 35088 ft 430 kts 217°
2026-05-04 18:54 42.51488 -6.87289 35096 ft 430 kts 217°
2026-05-04 18:54 42.46546 -6.91877 35089 ft 431 kts 217°
2026-05-04 18:55 42.41592 -6.96457 35083 ft 431 kts 217°
2026-05-04 18:55 42.34164 -7.03316 35085 ft 431 kts 218°
2026-05-04 18:56 42.29268 -7.07966 35084 ft 428 kts 224°
2026-05-04 18:56 42.25451 -7.13989 35087 ft 421 kts 240°
2026-05-04 18:57 42.22383 -7.20682 34488 ft 423 kts 240°
2026-05-04 18:57 42.20816 -7.24076 33995 ft 419 kts 240°
2026-05-04 18:57 42.19298 -7.27359 33510 ft 415 kts 240°
2026-05-04 18:58 42.17784 -7.30637 33070 ft 410 kts 240°
2026-05-04 18:58 42.16294 -7.33863 32598 ft 404 kts 240°
2026-05-04 18:58 42.14817 -7.37063 32162 ft 399 kts 240°
2026-05-04 18:58 42.13349 -7.40233 31730 ft 394 kts 240°
2026-05-04 18:59 42.11908 -7.43334 31274 ft 388 kts 240°
2026-05-04 18:59 42.10487 -7.46382 30849 ft 384 kts 240°
2026-05-04 18:59 42.09069 -7.49423 30420 ft 379 kts 240°
2026-05-04 18:59 42.07680 -7.52405 29977 ft 373 kts 241°
2026-05-04 19:00 42.06310 -7.55342 29550 ft 367 kts 241°
2026-05-04 19:00 42.04974 -7.58205 29167 ft 360 kts 240°
2026-05-04 19:00 42.03654 -7.61033 28777 ft 353 kts 241°
2026-05-04 19:00 42.02362 -7.63800 28421 ft 347 kts 241°
2026-05-04 19:01 42.01101 -7.66499 28057 ft 341 kts 241°
2026-05-04 19:01 41.99843 -7.69187 27699 ft 335 kts 241°
2026-05-04 19:01 41.98616 -7.71813 27355 ft 329 kts 241°
2026-05-04 19:01 41.97416 -7.74379 27027 ft 323 kts 242°
2026-05-04 19:02 41.96230 -7.76916 26694 ft 318 kts 241°
2026-05-04 19:02 41.95040 -7.79453 26376 ft 318 kts 241°
2026-05-04 19:02 41.93869 -7.81949 26058 ft 317 kts 241°
2026-05-04 19:02 41.92697 -7.84440 25700 ft 315 kts 242°
2026-05-04 19:03 41.91535 -7.86907 25396 ft 310 kts 242°
2026-05-04 19:03 41.90389 -7.89338 25075 ft 306 kts 242°
2026-05-04 19:03 41.89256 -7.91740 24741 ft 304 kts 242°
2026-05-04 19:03 41.88123 -7.94138 24410 ft 303 kts 242°
2026-05-04 19:04 41.86988 -7.96540 24071 ft 301 kts 242°
2026-05-04 19:04 41.85869 -7.98908 23735 ft 299 kts 242°
2026-05-04 19:04 41.84760 -8.01244 23357 ft 298 kts 242°
2026-05-04 19:04 41.83649 -8.03587 23003 ft 297 kts 242°
2026-05-04 19:05 41.82519 -8.05915 22628 ft 297 kts 238°
2026-05-04 19:05 41.81132 -8.07991 22242 ft 301 kts 227°
2026-05-04 19:05 41.79435 -8.09683 21856 ft 313 kts 216°
2026-05-04 19:05 41.77432 -8.11201 21444 ft 346 kts 214°
2026-05-04 19:06 41.75278 -8.12828 20972 ft 373 kts 214°
2026-05-04 19:06 41.72985 -8.14545 20479 ft 380 kts 213°
2026-05-04 19:06 41.70671 -8.16229 19996 ft 382 kts 210°
2026-05-04 19:06 41.68167 -8.17482 19500 ft 384 kts 204°
2026-05-04 19:07 41.65639 -8.18624 19053 ft 382 kts 203°
2026-05-04 19:07 41.63125 -8.19763 18593 ft 380 kts 203°
2026-05-04 19:07 41.60625 -8.20900 18091 ft 378 kts 203°
2026-05-04 19:07 41.58141 -8.22034 17614 ft 376 kts 203°
2026-05-04 19:08 41.55672 -8.23167 17160 ft 374 kts 203°
2026-05-04 19:08 41.53227 -8.24290 16705 ft 371 kts 203°
2026-05-04 19:08 41.50788 -8.25406 16242 ft 369 kts 203°
2026-05-04 19:08 41.48362 -8.26510 15798 ft 367 kts 203°
2026-05-04 19:09 41.45949 -8.27607 15346 ft 365 kts 203°
2026-05-04 19:09 41.43560 -8.28694 14912 ft 362 kts 203°
2026-05-04 19:09 41.41177 -8.29774 14478 ft 360 kts 203°
2026-05-04 19:09 41.38809 -8.30847 14041 ft 358 kts 202°
2026-05-04 19:10 41.36461 -8.31912 13585 ft 356 kts 202°
2026-05-04 19:10 41.34119 -8.32976 13159 ft 354 kts 202°
2026-05-04 19:10 41.31789 -8.34035 12739 ft 352 kts 202°
2026-05-04 19:10 41.29490 -8.35075 12322 ft 351 kts 202°
2026-05-04 19:11 41.27186 -8.36117 11837 ft 351 kts 202°
2026-05-04 19:11 41.24883 -8.37159 11376 ft 348 kts 202°
2026-05-04 19:11 41.22594 -8.38194 10960 ft 346 kts 202°
2026-05-04 19:11 41.20362 -8.39196 10785 ft 330 kts 202°
2026-05-04 19:12 41.18241 -8.40142 10663 ft 315 kts 202°
2026-05-04 19:12 41.14245 -8.41940 10255 ft 294 kts 202°
2026-05-04 19:12 41.12329 -8.42809 9887 ft 289 kts 202°
2026-05-04 19:13 41.10450 -8.43659 9390 ft 284 kts 202°
2026-05-04 19:13 41.08585 -8.44499 8806 ft 281 kts 202°
2026-05-04 19:13 41.06736 -8.45330 8236 ft 279 kts 202°
2026-05-04 19:13 41.04895 -8.46162 7773 ft 279 kts 202°
2026-05-04 19:14 41.03080 -8.47029 7398 ft 275 kts 209°
2026-05-04 19:14 41.01512 -8.48410 7028 ft 268 kts 227°
2026-05-04 19:14 41.00363 -8.50309 6627 ft 262 kts 244°
2026-05-04 19:14 40.99705 -8.52485 6291 ft 256 kts 259°
2026-05-04 19:15 40.99362 -8.54789 5944 ft 254 kts 261°
2026-05-04 19:15 40.99024 -8.57073 5584 ft 252 kts 262°
2026-05-04 19:15 40.99044 -8.59337 5236 ft 245 kts 289°
2026-05-04 19:15 40.99970 -8.61168 4891 ft 241 kts 322°
2026-05-04 19:16 41.01477 -8.62016 4555 ft 235 kts 347°
2026-05-04 19:16 41.03058 -8.62404 4243 ft 227 kts 347°
2026-05-04 19:16 41.04599 -8.62809 3942 ft 223 kts 346°
2026-05-04 19:16 41.06084 -8.63206 3616 ft 213 kts 346°
2026-05-04 19:17 41.07517 -8.63586 3350 ft 206 kts 346°
2026-05-04 19:17 41.08909 -8.63951 3064 ft 202 kts 347°
2026-05-04 19:17 41.10277 -8.64308 2816 ft 196 kts 346°
2026-05-04 19:17 41.11580 -8.64646 2572 ft 185 kts 346°
2026-05-04 19:18 41.12813 -8.64964 2300 ft 174 kts 346°
2026-05-04 19:18 41.13961 -8.65264 2059 ft 163 kts 346°
2026-05-04 19:18 41.15030 -8.65541 1875 ft 148 kts 346°
2026-05-04 19:18 41.16008 -8.65813 1676 ft 141 kts 345°
2026-05-04 19:19 41.16963 -8.66074 1492 ft 139 kts 347°
2026-05-04 19:19 41.17906 -8.66322 1308 ft 136 kts 347°
2026-05-04 19:19 41.18834 -8.66568 1106 ft 135 kts 345°
2026-05-04 19:19 41.19756 -8.66808 951 ft 136 kts 346°
2026-05-04 19:20 41.20704 -8.67048 817 ft 141 kts 347°
2026-05-04 19:20 41.21667 -8.67305 628 ft 140 kts 344°
2026-05-04 19:20 41.22621 -8.67557 469 ft 141 kts 347°
2026-05-04 19:20 41.23575 -8.67803 286 ft 137 kts 346°
2026-05-04 19:21 41.24412 -8.68023 246 ft 102 kts 349°
2026-05-04 19:21 41.24941 -8.68160 228 ft 53 kts 349°
2026-05-04 19:21 41.25194 -8.68142 222 ft 24 kts 22°
2026-05-04 19:21 41.25299 -8.68089 217 ft 13 kts 27°
2026-05-04 19:22 41.25305 -8.68077 217 ft 2 kts 69°
2026-05-04 19:22 41.25307 -8.68056 212 ft 2 kts 90°
2026-05-04 19:22 41.25298 -8.68031 219 ft 4 kts 132°
2026-05-04 19:22 41.25270 -8.68013 216 ft 5 kts 168°
2026-05-04 19:23 41.25234 -8.68005 213 ft 5 kts 170°
2026-05-04 19:23 41.25199 -8.67997 218 ft 5 kts 170°
2026-05-04 19:23 41.25163 -8.67988 220 ft 9 kts 170°
2026-05-04 19:23 41.25080 -8.67966 221 ft 12 kts 168°
2026-05-04 19:24 41.25006 -8.67946 225 ft 10 kts 168°
2026-05-04 19:24 41.24941 -8.67929 227 ft 9 kts 169°
2026-05-04 19:24 41.24877 -8.67905 230 ft 12 kts 156°
2026-05-04 19:24 41.24788 -8.67842 233 ft 15 kts 153°
2026-05-04 19:25 41.24693 -8.67807 238 ft 14 kts 168°
2026-05-04 19:25 41.24594 -8.67782 239 ft 16 kts 169°
2026-05-04 19:25 41.24492 -8.67756 243 ft 14 kts 169°
2026-05-04 19:25 41.24396 -8.67733 244 ft 14 kts 169°
2026-05-04 19:26 41.24299 -8.67693 244 ft 15 kts 150°
2026-05-04 19:26 41.24236 -8.67582 247 ft 15 kts 125°
2026-05-04 19:26 41.24168 -8.67488 248 ft 14 kts 145°